• Join FlightAware (Why Join?)
  • Login
  • US Flag 
07:07PM EDT


 

Airport Tracker/Info


-or-


 

Live Flight TrackerFlight Track Log ✈ AFL150 ✈ 08-Oct-2013 ✈ UUEE / SVO - MUHA / HAV

Flight Track Log - Related Links

Times and Time Zones

All times are in EDT time to prevent confusion due to time zone crossing. See the AFL150 flight status page for this flight to view local times or setup timezone preferences in your user account.

Time Position Orientation Groundspeed Altitude Reporting Facility
EDT Latitude Longitude Course Direction KTS MPH feet Rate Location/Type
06:24AM 55.9650 37.3760 253° West 172 198 1,300  Level FlightAware
06:24AM 55.9610 37.3490 255° West 169 194 2,200 1,680 Climbing FlightAware
06:25AM 55.9570 37.3190 257° West 193 222 2,500 840 Climbing FlightAware
06:25AM 55.9540 37.2950 257° West 210 242 2,700 1,080 Climbing FlightAware
06:25AM 55.9500 37.2590 259° West 236 272 3,100 1,620 Climbing FlightAware
06:26AM 55.9440 37.2200 255° West 248 285 3,800 2,160 Climbing FlightAware
06:26AM 55.9440 37.2090 270° West 249 287 4,000 2,460 Climbing FlightAware
06:26AM 55.9480 37.1600 278° West 248 285 5,000 2,580 Climbing FlightAware
06:26AM 55.9510 37.1470 292° West 246 283 5,400 2,700 Climbing FlightAware
06:27AM 55.9560 37.1250 292° West 247 284 5,900 2,460 Climbing FlightAware
06:27AM 55.9690 37.0790 297° West 255 293 6,900 2,520 Climbing FlightAware
06:27AM 55.9790 37.0400 295° West 254 292 7,800 2,520 Climbing FlightAware
06:28AM 55.9880 37.0060 295° West 254 292 8,600 2,580 Climbing FlightAware
06:28AM 56.0000 36.9640 297° West 257 296 9,500 2,580 Climbing FlightAware
06:28AM 56.0060 36.9410 295° West 260 299 10,000 1,380 Climbing FlightAware
06:29AM 56.0310 36.8500 296° West 301 346 10,800 1,020 Climbing FlightAware
06:30AM 56.0560 36.7530 295° West 337 388 11,500 1,680 Climbing FlightAware
06:30AM 56.0800 36.6630 296° West 340 391 13,000 2,460 Climbing FlightAware
06:31AM 56.0990 36.5900 295° West 344 396 14,300 2,160 Climbing FlightAware
06:31AM 56.1260 36.4880 295° West 355 409 15,500 2,040 Climbing FlightAware
06:32AM 56.1510 36.3900 295° West 358 412 16,800 2,280 Climbing FlightAware
06:32AM 56.1760 36.2950 295° West 357 411 18,300 2,280 Climbing FlightAware
06:33AM 56.1980 36.2080 294° West 359 413 19,400 2,160 Climbing FlightAware
06:34AM 56.2230 36.1110 295° West 355 409 20,800 2,040 Climbing FlightAware
06:34AM 56.2460 36.0240 295° West 357 411 21,900 1,560 Climbing FlightAware
06:35AM 56.2710 35.9270 295° West 366 421 22,600 1,500 Climbing FlightAware
06:35AM 56.2950 35.8290 294° West 367 422 23,600 1,560 Climbing FlightAware
06:36AM 56.3210 35.7300 295° West 370 426 24,500 1,320 Climbing FlightAware
06:37AM 56.3470 35.6240 294° West 379 436 25,200 1,020 Climbing FlightAware
06:37AM 56.3680 35.5410 295° West 385 443 25,700 1,020 Climbing FlightAware
06:38AM 56.3930 35.4440 295° West 390 449 26,300 1,200 Climbing FlightAware
06:38AM 56.4270 35.3310 299° West 390 449 27,100 1,200 Climbing FlightAware
06:39AM 56.4650 35.2400 307° West 392 451 27,800 1,200 Climbing FlightAware
06:39AM 56.5090 35.1570 314° West 392 451 28,500 1,200 Climbing FlightAware
06:40AM 56.5660 35.0770 322° Northwest 392 451 29,300 1,080 Climbing FlightAware
06:41AM 56.6130 35.0280 330° Northwest 394 453 29,800 1,200 Climbing FlightAware
06:41AM 56.6720 34.9830 337° Northwest 393 452 30,600 1,320 Climbing FlightAware
06:42AM 56.7310 34.9540 345° North 393 452 31,400 1,260 Climbing FlightAware
06:42AM 56.7960 34.9390 353° North 395 455 32,100 1,260 Climbing FlightAware
06:43AM 56.8690 34.9400 360° North 393 452 33,000 1,260 Climbing FlightAware
06:43AM 56.9230 34.9460 North 388 447 33,600 840 Climbing FlightAware
06:44AM 56.9940 34.9510 North 386 444 34,000 300 Climbing FlightAware
06:45AM 57.0470 34.9520 North 386 444 34,000  Level FlightAware
06:45AM 57.1100 34.9540 North 383 441 34,000  Level FlightAware
06:46AM 57.1700 34.9560 North 381 438 34,000  Level FlightAware
06:46AM 57.2310 34.9580 North 380 437 34,000  Level FlightAware
06:47AM 57.2950 34.9590 360° North 380 437 34,000  Level FlightAware
06:48AM 57.3560 34.9610 North 380 437 34,000  Level FlightAware
06:48AM 57.4260 34.9630 North 380 437 34,000  Level FlightAware
06:49AM 57.4780 34.9650 North 379 436 34,000  Level FlightAware
06:49AM 57.5400 34.9670 North 378 435 34,000  Level FlightAware
06:50AM 57.6260 34.9650 359° North 374 430 34,000  Level FlightAware
06:51AM 57.6850 34.9450 350° North 369 425 34,000  Level FlightAware
06:51AM 57.7410 34.9090 341° North 367 422 34,000  Level FlightAware
06:52AM 57.7940 34.8590 333° Northwest 366 421 34,000  Level FlightAware
06:52AM 57.8420 34.7950 325° Northwest 365 420 34,000  Level FlightAware
06:53AM 57.8900 34.7290 324° Northwest 366 421 34,000  Level FlightAware
06:54AM 57.9370 34.6630 323° Northwest 366 421 34,000  Level FlightAware
06:54AM 57.9840 34.5970 323° Northwest 366 421 34,000  Level FlightAware
06:55AM 58.0320 34.5310 324° Northwest 366 421 34,000  Level FlightAware
06:55AM 58.0790 34.4650 323° Northwest 366 421 34,000  Level FlightAware
06:56AM 58.1270 34.3970 323° Northwest 365 420 34,000  Level FlightAware
06:57AM 58.1740 34.3310 323° Northwest 366 421 34,000  Level FlightAware
06:57AM 58.2200 34.2590 321° Northwest 366 421 34,000  Level FlightAware
06:58AM 58.2650 34.1890 321° Northwest 366 421 34,000  Level FlightAware
06:58AM 58.3120 34.1180 322° Northwest 366 421 34,000  Level FlightAware
06:59AM 58.3570 34.0480 321° Northwest 367 422 34,000  Level FlightAware
06:59AM 58.3950 33.9910 322° Northwest 367 422 34,000  Level FlightAware
07:00AM 58.4480 33.9080 321° Northwest 368 423 34,000  Level FlightAware
07:01AM 58.5110 33.8110 321° Northwest 368 423 34,000  Level FlightAware
07:02AM 58.5520 33.7490 322° Northwest 368 423 34,000  Level FlightAware
07:02AM 58.5930 33.6840 320° Northwest 368 423 34,000  Level FlightAware
07:03AM 58.6350 33.6190 321° Northwest 368 423 34,000  Level FlightAware
07:03AM 58.7010 33.5160 321° Northwest 370 426 34,000  Level FlightAware
07:04AM 58.7510 33.4300 318° Northwest 371 427 34,000  Level FlightAware
07:05AM 58.7940 33.3460 315° West 370 426 34,000  Level FlightAware
07:05AM 58.8480 33.2420 315° West 370 426 34,000  Level FlightAware
07:06AM 58.8850 33.1710 315° West 370 426 34,000  Level FlightAware
07:06AM 58.9370 33.0710 315° West 371 427 34,000  Level FlightAware
07:07AM 59.0030 32.9420 315° West 372 428 34,000  Level FlightAware
07:08AM 59.0520 32.8460 315° West 373 429 34,000  Level FlightAware
07:09AM 59.0890 32.7730 315° West 374 430 34,000  Level FlightAware
07:09AM 59.1330 32.6870 315° West 374 430 34,000  Level FlightAware
07:10AM 59.1790 32.5930 314° West 373 429 34,000  Level FlightAware
07:10AM 59.2160 32.5210 315° West 373 429 34,000  Level FlightAware
07:11AM 59.2590 32.4350 314° West 372 428 34,000  Level FlightAware
07:12AM 59.3110 32.3290 314° West 374 430 34,000  Level FlightAware
07:12AM 59.3490 32.2520 314° West 374 430 34,000  Level FlightAware
07:13AM 59.3960 32.1570 314° West 375 432 34,000  Level FlightAware
07:13AM 59.4350 32.0650 310° West 376 433 34,000  Level FlightAware
07:14AM 59.4670 31.9640 302° West 379 436 34,000  Level FlightAware
07:15AM 59.4920 31.8520 294° West 382 440 34,000  Level FlightAware
07:15AM 59.5170 31.7420 294° West 382 440 34,000  Level FlightAware
07:16AM 59.5410 31.6300 293° West 382 440 34,000  Level FlightAware
07:16AM 59.5660 31.5180 294° West 382 440 34,000  Level FlightAware
07:17AM 59.5900 31.4060 293° West 381 438 34,000  Level FlightAware
07:17AM 59.6130 31.2970 293° West 382 440 34,000  Level FlightAware
07:18AM 59.6360 31.1870 293° West 383 441 34,000  Level FlightAware
07:19AM 59.6580 31.0880 294° West 382 440 34,000  Level FlightAware
07:19AM 59.6790 30.9880 293° West 382 440 34,000  Level FlightAware
07:20AM 59.7100 30.8410 293° West 382 440 34,000  Level FlightAware
07:20AM 59.7360 30.7150 292° West 382 440 34,000  Level FlightAware
07:21AM 59.7430 30.6640 285° West 389 448 34,000  Level FlightAware
07:21AM 59.7390 30.5370 266° West 404 465 34,000  Level FlightAware
07:22AM 59.7290 30.4030 262° West 405 466 34,000  Level FlightAware
07:23AM 59.7180 30.2520 262° West 407 468 34,000  Level FlightAware
07:23AM 59.7090 30.1160 263° West 407 468 34,000  Level FlightAware
07:24AM 59.7010 29.9860 263° West 407 468 34,000  Level FlightAware
07:24AM 59.6940 29.8680 263° West 402 463 34,000  Level FlightAware
07:25AM 59.7000 29.7830 278° West 392 451 34,000  Level FlightAware
07:25AM 59.7090 29.6790 280° West 392 451 34,000  Level FlightAware
07:26AM 59.7200 29.5560 280° West 391 450 34,000  Level FlightAware
07:26AM 59.7320 29.4230 280° West 392 451 34,000  Level FlightAware
07:27AM 59.7430 29.2890 279° West 393 452 34,000  Level FlightAware
07:28AM 59.7540 29.1680 280° West 395 455 34,000  Level FlightAware
07:28AM 59.7660 29.0160 279° West 396 456 34,000  Level FlightAware
07:29AM 59.7770 28.8900 280° West 397 457 34,000  Level FlightAware
07:29AM 59.7870 28.7670 279° West 396 456 34,000  Level FlightAware
07:30AM 59.7970 28.6450 279° West 394 453 34,000  Level FlightAware
07:31AM 59.8060 28.5240 278° West 395 455 34,000  Level FlightAware
07:31AM 59.8160 28.3960 279° West 395 455 34,000  Level FlightAware
07:32AM 59.8270 28.2600 279° West 396 456 34,000  Level FlightAware
07:32AM 59.8370 28.1370 279° West 397 457 34,000  Level FlightAware
07:33AM 59.8450 28.0220 278° West 398 458 34,000  Level FlightAware
07:34AM 59.8550 27.8900 279° West 398 458 34,000  Level FlightAware
07:34AM 59.8650 27.7630 279° West 398 458 34,000  Level FlightAware
07:35AM 59.8740 27.6280 278° West 397 457 34,000  Level FlightAware
07:35AM 59.8820 27.5150 278° West 399 459 34,000  Level FlightAware
07:36AM 59.8920 27.3760 278° West 399 459 34,000  Level FlightAware
07:36AM 59.9000 27.2610 278° West 399 459 34,000  Level FlightAware
07:37AM 59.9090 27.1350 278° West 400 460 34,000  Level FlightAware
07:38AM 59.9180 27.0010 278° West 401 461 34,000  Level FlightAware
07:38AM 59.9270 26.8730 278° West 401 461 34,000  Level FlightAware
07:39AM 59.9360 26.7410 278° West 401 461 34,000  Level FlightAware
07:39AM 59.9430 26.6230 277° West 401 461 34,000  Level FlightAware
07:40AM 59.9520 26.4920 278° West 401 461 34,000  Level FlightAware
07:41AM 59.9640 26.3600 280° West 400 460 34,000  Level FlightAware
07:41AM 59.9830 26.2450 288° West 400 460 34,000  Level FlightAware
07:42AM 60.0130 26.1210 296° West 401 461 34,000  Level FlightAware
07:42AM 60.0500 26.0120 304° West 403 464 34,000  Level FlightAware
07:43AM 60.0910 25.9210 312° West 405 466 34,000  Level FlightAware
07:43AM 60.1410 25.8350 319° Northwest 408 470 34,000  Level FlightAware
07:44AM 60.1940 25.7460 320° Northwest 404 465 34,000  Level FlightAware
07:45AM 60.2330 25.6520 310° West 401 461 34,000  Level FlightAware
07:45AM 60.2670 25.5470 303° West 398 458 34,000  Level FlightAware
07:46AM 60.2950 25.4240 295° West 398 458 34,000  Level FlightAware
07:46AM 60.3140 25.3110 289° West 398 458 34,000  Level FlightAware
07:47AM 60.3360 25.1820 289° West 398 458 34,000  Level FlightAware
07:48AM 60.3660 25.0540 295° West 399 459 34,000  Level FlightAware
07:48AM 60.3970 24.9550 302° West 402 463 34,000  Level FlightAware
07:49AM 60.4400 24.8520 310° West 405 466 34,000  Level FlightAware
07:49AM 60.4910 24.7610 319° Northwest 409 471 34,000  Level FlightAware
07:50AM 60.5480 24.6850 327° Northwest 416 479 34,000  Level FlightAware
07:50AM 60.6040 24.6200 330° Northwest 416 479 34,000  Level FlightAware
07:51AM 60.6640 24.5470 329° Northwest 415 478 34,000  Level FlightAware
07:52AM 60.7170 24.4790 328° Northwest 415 478 34,000  Level FlightAware
07:52AM 60.7730 24.4080 328° Northwest 414 476 34,000  Level FlightAware
07:53AM 60.8330 24.3320 328° Northwest 415 478 34,000  Level FlightAware
07:53AM 60.8870 24.2630 328° Northwest 415 478 34,000  Level FlightAware
07:54AM 60.9500 24.1820 328° Northwest 415 478 34,000  Level FlightAware
07:55AM 61.0050 24.1110 328° Northwest 415 478 34,000  Level FlightAware
07:55AM 61.0580 24.0420 328° Northwest 414 476 34,000  Level FlightAware
07:56AM 61.1170 23.9650 328° Northwest 414 476 34,000  Level FlightAware
07:56AM 61.1740 23.8910 328° Northwest 414 476 34,000  Level FlightAware
07:57AM 61.2290 23.8190 328° Northwest 414 476 34,000  Level FlightAware
07:58AM 61.2890 23.7390 327° Northwest 415 478 34,000  Level FlightAware
07:58AM 61.3420 23.6690 328° Northwest 415 478 34,000  Level FlightAware
07:59AM 61.3960 23.5970 327° Northwest 415 478 34,000  Level FlightAware
07:59AM 61.4560 23.5260 331° Northwest 419 482 34,000  Level FlightAware
08:00AM 61.5180 23.4630 334° Northwest 419 482 34,000  Level FlightAware
08:00AM 61.5830 23.3960 334° Northwest 418 481 34,000  Level FlightAware
08:01AM 61.6320 23.3440 333° Northwest 417 480 34,000  Level FlightAware
08:02AM 61.7020 23.2690 333° Northwest 417 480 34,000  Level FlightAware
08:02AM 61.7106 23.2604 335° Northwest 417 480 34,000  Level FlightAware ADS-B
08:03AM 61.8180 23.1460 333° Northwest 417 480 34,000  Level FlightAware
08:03AM 61.8760 23.0820 333° Northwest 418 481 34,000  Level FlightAware
08:04AM 61.9270 23.0270 333° Northwest 419 482 34,000  Level FlightAware
08:05AM 61.9950 22.9530 333° Northwest 419 482 34,000  Level FlightAware
08:05AM 62.0710 22.8700 333° Northwest 420 483 34,000  Level FlightAware
08:06AM 62.1280 22.8080 333° Northwest 421 484 34,000  Level FlightAware
08:06AM 62.1910 22.7380 333° Northwest 423 487 34,000  Level FlightAware
08:07AM 62.2500 22.6580 328° Northwest 413 475 34,000  Level FlightAware
08:08AM 62.3010 22.5650 320° Northwest 413 475 34,000  Level FlightAware
08:08AM 62.3540 22.4680 320° Northwest 413 475 34,000  Level FlightAware
08:09AM 62.4000 22.3850 320° Northwest 414 476 34,000  Level FlightAware
08:09AM 62.4550 22.2840 320° Northwest 413 475 34,000  Level FlightAware
08:10AM 62.5010 22.2000 320° Northwest 413 475 34,000  Level FlightAware
08:10AM 62.5560 22.1000 320° Northwest 412 474 34,000  Level FlightAware
08:11AM 62.5930 22.0310 319° Northwest 412 474 34,000  Level FlightAware
08:12AM 62.6590 21.9100 320° Northwest 412 474 34,000  Level FlightAware
08:12AM 62.7050 21.8250 320° Northwest 413 475 34,000  Level FlightAware
08:13AM 62.7600 21.7200 319° Northwest 414 476 34,000  Level FlightAware
08:13AM 62.8070 21.6320 319° Northwest 415 478 34,000  Level FlightAware
08:14AM 62.8640 21.5250 319° Northwest 416 479 34,000  Level FlightAware
08:14AM 62.9060 21.4460 319° Northwest 417 480 34,000  Level FlightAware
08:15AM 62.9590 21.3460 319° Northwest 418 481 34,000  Level FlightAware
08:16AM 63.0170 21.2350 319° Northwest 418 481 34,000  Level FlightAware
08:16AM 63.0680 21.1370 319° Northwest 418 481 34,000  Level FlightAware
08:17AM 63.1110 21.0530 319° Northwest 418 481 34,000  Level FlightAware
08:17AM 63.1550 20.9680 319° Northwest 418 481 34,000  Level FlightAware
08:18AM 63.2040 20.8720 319° Northwest 418 481 34,000  Level FlightAware
08:19AM 63.2780 20.7280 319° Northwest 417 480 34,000  Level FlightAware
08:19AM 63.3280 20.6300 319° Northwest 417 480 34,000  Level FlightAware
08:20AM 63.3700 20.5450 318° Northwest 416 479 34,000  Level FlightAware
08:20AM 63.4210 20.4450 319° Northwest 417 480 34,000  Level FlightAware
08:21AM 63.4780 20.3290 318° Northwest 417 480 34,000  Level FlightAware
08:22AM 63.5210 20.2440 319° Northwest 418 481 34,000  Level FlightAware
08:22AM 63.5710 20.1420 318° Northwest 419 482 34,000  Level FlightAware
08:23AM 63.6190 20.0460 318° Northwest 419 482 34,000  Level FlightAware
08:23AM 63.6790 19.9230 318° Northwest 421 484 34,000  Level FlightAware
08:24AM 63.7210 19.8370 318° Northwest 422 486 34,000  Level FlightAware
08:25AM 63.7790 19.7180 318° Northwest 425 489 34,000  Level FlightAware
08:25AM 63.8200 19.6320 317° Northwest 427 491 34,000  Level FlightAware
08:26AM 63.8720 19.5260 318° Northwest 427 491 34,000  Level FlightAware
08:26AM 63.9270 19.4100 317° Northwest 426 490 34,000  Level FlightAware
08:27AM 63.9830 19.2930 318° Northwest 425 489 34,000  Level FlightAware
08:27AM 64.0260 19.2010 317° Northwest 425 489 34,000  Level FlightAware
08:28AM 64.0740 19.0990 317° Northwest 426 490 34,000  Level FlightAware
08:29AM 64.1260 18.9880 317° Northwest 428 493 34,000  Level FlightAware
08:29AM 64.1720 18.8890 317° Northwest 428 493 34,000  Level FlightAware
08:30AM 64.2260 18.7730 317° Northwest 428 493 34,000  Level FlightAware
08:30AM 64.2810 18.6530 317° Northwest 428 493 34,000  Level FlightAware
08:31AM 64.3340 18.5370 317° Northwest 427 491 34,000  Level FlightAware
08:31AM 64.3770 18.4440 317° Northwest 427 491 34,000  Level FlightAware
08:32AM 64.4340 18.3180 316° Northwest 425 489 34,000  Level FlightAware
08:33AM 64.4820 18.2120 316° Northwest 424 488 34,000  Level FlightAware
08:33AM 64.5350 18.0920 316° Northwest 422 486 34,000  Level FlightAware
08:34AM 64.5750 18.0030 316° Northwest 422 486 34,000  Level FlightAware
08:34AM 64.6240 17.8930 316° Northwest 422 486 34,000  Level FlightAware
08:35AM 64.6780 17.7710 316° Northwest 423 487 34,000  Level FlightAware
08:36AM 64.7280 17.6560 316° Northwest 425 489 34,000  Level FlightAware
08:36AM 64.7700 17.5610 316° Northwest 425 489 34,000  Level FlightAware
08:37AM 64.8190 17.4480 316° Northwest 425 489 34,000  Level FlightAware
08:37AM 64.8760 17.3180 316° Northwest 427 491 34,000  Level FlightAware
08:38AM 64.9170 17.2230 316° Northwest 428 493 34,000  Level FlightAware
08:38AM 64.9660 17.1070 315° West 429 494 34,000  Level FlightAware
08:39AM 65.0170 16.9870 315° West 429 494 34,000  Level FlightAware
08:40AM 65.0660 16.8720 315° West 431 496 34,000  Level FlightAware
08:40AM 65.1230 16.7370 315° West 432 497 34,000  Level FlightAware
08:41AM 65.1720 16.6190 315° West 432 497 34,000  Level FlightAware
08:41AM 65.2140 16.5180 315° West 434 499 34,000  Level FlightAware
08:42AM 65.2620 16.4030 315° West 434 499 34,000  Level FlightAware
08:43AM 65.3200 16.2620 315° West 435 501 34,000  Level FlightAware
08:43AM 65.3610 16.1600 314° West 436 502 34,000  Level FlightAware
08:44AM 65.4090 16.0420 314° West 437 503 34,000  Level FlightAware
08:44AM 65.4670 15.9000 315° West 437 503 34,000  Level FlightAware
08:45AM 65.5090 15.7950 314° West 437 503 34,000  Level FlightAware
08:46AM 65.5580 15.6720 314° West 430 495 34,000  Level FlightAware
08:46AM 65.6060 15.5510 314° West 430 495 34,000  Level FlightAware
08:47AM 65.6550 15.4280 314° West 430 495 34,000  Level FlightAware
08:47AM 65.7040 15.3040 314° West 431 496 34,000  Level FlightAware
08:48AM 65.7520 15.1790 313° West 433 498 34,000  Level FlightAware
08:49AM 65.8080 15.0360 314° West 433 498 34,000  Level FlightAware
08:49AM 65.8500 14.9270 313° West 432 497 34,000  Level FlightAware
08:50AM 65.8980 14.8010 313° West 433 498 34,000  Level FlightAware
08:50AM 65.9430 14.6850 314° West 435 501 34,000  Level FlightAware
08:51AM 66.0080 14.5140 313° West 433 498 34,000  Level FlightAware
08:51AM 66.0550 14.3880 313° West 434 499 34,000  Level FlightAware
08:52AM 66.1030 14.2580 312° West 436 502 34,000  Level FlightAware
08:53AM 66.1520 14.1270 313° West 440 506 34,000  Level FlightAware
08:53AM 66.1990 14.0000 313° West 440 506 34,000  Level FlightAware
08:54AM 66.2500 13.8630 313° West 439 505 34,000  Level FlightAware
08:54AM 66.2960 13.7360 312° West 438 504 34,000  Level FlightAware
08:55AM 66.3520 13.5820 312° West 438 504 34,000  Level FlightAware
08:56AM 66.4000 13.4490 312° West 437 503 34,000  Level FlightAware
08:56AM 66.4480 13.3150 312° West 442 509 34,000  Level FlightAware
08:57AM 66.4880 13.2020 312° West 441 507 34,000  Level FlightAware
08:57AM 66.5440 13.0440 312° West 440 506 34,000  Level FlightAware
08:58AM 66.5900 12.9150 312° West 441 507 34,000  Level FlightAware
08:59AM 66.6370 12.7790 311° West 441 507 34,000  Level FlightAware
08:59AM 66.6840 12.6430 311° West 440 506 34,000  Level FlightAware
09:00AM 66.7320 12.5050 311° West 440 506 34,000  Level FlightAware
09:00AM 66.7760 12.3760 311° West 439 505 34,000  Level FlightAware
09:01AM 66.8240 12.2360 311° West 433 498 34,000  Level FlightAware
09:02AM 66.8700 12.1000 311° West 432 497 34,000  Level FlightAware
09:02AM 66.9160 11.9630 311° West 431 496 34,000  Level FlightAware
09:03AM 66.9610 11.8270 310° West 430 495 34,000 240 Level FlightAware
09:03AM 67.0070 11.6890 311° West 429 494 34,300 720 Climbing FlightAware
09:04AM 67.0470 11.5690 311° West 427 491 34,900 480 Climbing FlightAware
09:05AM 67.0890 11.4350 309° West 427 491 34,900 720 Level FlightAware
09:05AM 67.1420 11.2770 311° West 427 491 35,900 780 Climbing FlightAware
09:06AM 67.1960 11.1100 310° West 427 491 36,000 60 Climbing FlightAware
09:06AM 67.2340 10.9890 309° West 427 491 36,000  Level FlightAware
09:07AM 67.2720 10.8670 309° West 427 491 36,000  Level FlightAware
09:08AM 67.3100 10.7450 309° West 427 491 36,000  Level FlightAware
09:08AM 67.3480 10.6230 309° West 427 491 36,000  Level FlightAware
09:09AM 67.3860 10.5010 309° West 427 491 36,000  Level FlightAware
09:09AM 67.4250 10.3760 309° West 427 491 36,000  Level FlightAware
09:10AM 67.4630 10.2530 309° West 427 491 36,000  Level FlightAware
09:11AM 67.5020 10.1270 309° West 427 491 36,000  Level FlightAware
09:12AM 67.5600 9.9390 309° West 427 491 36,000  Level FlightAware
09:12AM 67.5990 9.8120 309° West 427 491 36,000  Level FlightAware
09:13AM 67.6380 9.6860 309° West 427 491 36,000  Level FlightAware
09:13AM 67.6760 9.5620 309° West 427 491 36,000  Level FlightAware
09:14AM 67.7140 9.4380 309° West 427 491 36,000  Level FlightAware
09:15AM 67.7520 9.3140 309° West 427 491 36,000  Level FlightAware
09:15AM 67.7900 9.1900 309° West 427 491 36,000  Level FlightAware
09:18AM 67.8363 8.5117 281° West  Level Estimated
09:19AM 67.8558 8.2116 280° West  Level Estimated
09:20AM 67.8747 7.9110 280° West  Level Estimated
09:21AM 67.8932 7.6100 279° West  Level Estimated
09:22AM 67.9110 7.3084 279° West  Level Estimated
09:23AM 67.9283 7.0064 279° West  Level Estimated
09:24AM 67.9451 6.7040 279° West  Level Estimated
09:25AM 67.9613 6.4011 278° West  Level Estimated
09:26AM 67.9769 6.0978 278° West  Level Estimated
09:27AM 67.9920 5.7942 278° West  Level Estimated
09:28AM 68.0065 5.4901 277° West  Level Estimated
09:29AM 68.0205 5.1856 277° West  Level Estimated
09:30AM 68.0339 4.8808 277° West  Level Estimated
09:31AM 68.0467 4.5757 277° West  Level Estimated
09:32AM 68.0590 4.2702 276° West  Level Estimated
09:33AM 68.0707 3.9644 276° West  Level Estimated
09:34AM 68.0818 3.6583 276° West  Level Estimated
09:35AM 68.0924 3.3519 275° West  Level Estimated
09:36AM 68.1024 3.0452 275° West  Level Estimated
09:37AM 68.1118 2.7383 275° West  Level Estimated
09:38AM 68.1207 2.4311 275° West  Level Estimated
09:39AM 68.1290 2.1237 274° West  Level Estimated
09:40AM 68.1367 1.8161 274° West  Level Estimated
09:41AM 68.1439 1.5083 274° West  Level Estimated
09:42AM 68.1505 1.2003 273° West  Level Estimated
09:43AM 68.1565 0.8922 273° West  Level Estimated
09:44AM 68.1619 0.5838 273° West  Level Estimated
09:45AM 68.1668 0.2754 273° West  Level Estimated
09:46AM 68.1711 -0.0332 272° West  Level Estimated
09:47AM 68.1748 -0.3419 272° West  Level Estimated
09:48AM 68.1779 -0.6507 272° West  Level Estimated
09:49AM 68.1805 -0.9595 271° West  Level Estimated
09:50AM 68.1825 -1.2685 271° West  Level Estimated
09:51AM 68.1839 -1.5774 271° West  Level Estimated
09:52AM 68.1848 -1.8864 271° West  Level Estimated
09:53AM 68.1851 -2.1954 270° West  Level Estimated
09:54AM 68.1848 -2.5044 270° West  Level Estimated
09:55AM 68.1839 -2.8134 270° West  Level Estimated
09:56AM 68.1824 -3.1224 269° West  Level Estimated
09:57AM 68.1804 -3.4313 269° West  Level Estimated
09:58AM 68.1778 -3.7402 269° West  Level Estimated
09:59AM 68.1746 -4.0489 269° West  Level Estimated
10:00AM 68.1709 -4.3576 268° West  Level Estimated
10:01AM 68.1665 -4.6662 268° West  Level Estimated
10:02AM 68.1616 -4.9746 268° West  Level Estimated
10:03AM 68.1562 -5.2829 267° West  Level Estimated
10:04AM 68.1501 -5.5911 267° West  Level Estimated
10:05AM 68.1435 -5.8991 267° West  Level Estimated
10:06AM 68.1363 -6.2069 267° West  Level Estimated
10:07AM 68.1285 -6.5145 266° West  Level Estimated
10:08AM 68.1202 -6.8219 266° West  Level Estimated
10:09AM 68.1113 -7.1290 266° West  Level Estimated
10:10AM 68.1019 -7.4360 265° West  Level Estimated
10:11AM 68.0918 -7.7426 265° West  Level Estimated
10:12AM 68.0812 -8.0490 265° West  Level Estimated
10:13AM 68.0700 -8.3551 265° West  Level Estimated
10:14AM 68.0583 -8.6609 264° West  Level Estimated
10:15AM 68.0460 -8.9663 264° West  Level Estimated
10:16AM 68.0331 -9.2715 264° West  Level Estimated
10:17AM 68.0197 -9.5763 263° West  Level Estimated
10:18AM 68.0057 -9.8807 263° West  Level Estimated
10:19AM 67.9911 -10.1847 263° West  Level Estimated
10:20AM 67.9760 -10.4884 263° West  Level Estimated
10:21AM 67.9604 -10.7916 262° West  Level Estimated
10:22AM 67.9441 -11.0945 262° West  Level Estimated
10:23AM 67.9274 -11.3969 262° West  Level Estimated
10:24AM 67.9100 -11.6989 261° West  Level Estimated
10:25AM 67.8921 -12.0004 261° West  Level Estimated
10:26AM 67.8737 -12.3014 261° West  Level Estimated
10:27AM 67.8547 -12.6020 261° West  Level Estimated
10:28AM 67.8351 -12.9020 260° West  Level Estimated
10:29AM 67.8150 -13.2016 260° West  Level Estimated
10:30AM 67.7944 -13.5006 260° West  Level Estimated
10:31AM 67.7732 -13.7991 260° West  Level Estimated
10:32AM 67.7514 -14.0970 259° West  Level Estimated
10:33AM 67.7292 -14.3944 259° West  Level Estimated
10:34AM 67.7064 -14.6912 259° West  Level Estimated
10:35AM 67.6830 -14.9875 258° West  Level Estimated
10:36AM 67.6591 -15.2831 258° West  Level Estimated
10:37AM 67.6347 -15.5781 258° West  Level Estimated
10:38AM 67.6097 -15.8726 258° West  Level Estimated
10:39AM 67.5843 -16.1664 257° West  Level Estimated
10:40AM 67.5582 -16.4595 257° West  Level Estimated
10:41AM 67.5317 -16.7520 257° West  Level Estimated
10:42AM 67.5046 -17.0438 256° West  Level Estimated
10:43AM 67.4770 -17.3350 256° West  Level Estimated
10:44AM 67.4489 -17.6255 256° West  Level Estimated
10:45AM 67.4203 -17.9153 256° West  Level Estimated
10:46AM 67.3911 -18.2044 255° West  Level Estimated
10:47AM 67.3614 -18.4928 255° West  Level Estimated
10:48AM 67.3312 -18.7804 255° West  Level Estimated
10:49AM 67.3005 -19.0673 255° West  Level Estimated
10:50AM 67.2693 -19.3535 254° West  Level Estimated
10:51AM 67.2376 -19.6389 254° West  Level Estimated
10:52AM 67.2054 -19.9236 254° West  Level Estimated
10:53AM 67.1726 -20.2075 254° West  Level Estimated
10:54AM 67.1394 -20.4907 253° West  Level Estimated
10:55AM 67.1057 -20.7730 253° West  Level Estimated
10:56AM 67.0714 -21.0546 253° West  Level Estimated
10:57AM 67.0367 -21.3353 253° West  Level Estimated
10:58AM 67.0015 -21.6153 252° West  Level Estimated
10:59AM 66.9658 -21.8944 252° West  Level Estimated
11:00AM 66.9296 -22.1727 252° West  Level Estimated
11:01AM 66.8929 -22.4502 251° West  Level Estimated
11:02AM 66.8558 -22.7268 251° West  Level Estimated
11:03AM 66.8181 -23.0026 251° West  Level Estimated
11:04AM 66.7800 -23.2776 251° West  Level Estimated
11:05AM 66.7414 -23.5517 250° West  Level Estimated
11:06AM 66.7023 -23.8249 250° West  Level Estimated
11:07AM 66.6627 -24.0973 250° West  Level Estimated
11:08AM 66.6227 -24.3688 250° West  Level Estimated
11:09AM 66.5822 -24.6394 249° West  Level Estimated
11:10AM 66.5413 -24.9091 249° West  Level Estimated
11:11AM 66.4999 -25.1779 249° West  Level Estimated
11:12AM 66.4580 -25.4459 249° West  Level Estimated
11:13AM 66.4157 -25.7129 248° West  Level Estimated
11:14AM 66.3729 -25.9790 248° West  Level Estimated
11:15AM 66.3297 -26.2442 248° West  Level Estimated
11:16AM 66.2860 -26.5085 248° West  Level Estimated
11:17AM 66.2419 -26.7719 248° West  Level Estimated
11:18AM 66.1973 -27.0343 247° West  Level Estimated
11:19AM 66.1523 -27.2958 247° West  Level Estimated
11:20AM 66.1068 -27.5564 247° West  Level Estimated
11:21AM 66.0609 -27.8161 247° West  Level Estimated
11:22AM 66.0146 -28.0748 246° West  Level Estimated
11:23AM 65.9678 -28.3326 246° West  Level Estimated
11:24AM 65.9206 -28.5894 246° West  Level Estimated
11:25AM 65.8730 -28.8452 246° West  Level Estimated
11:26AM 65.8249 -29.1002 245° Southwest  Level Estimated
11:27AM 65.7765 -29.3541 245° Southwest  Level Estimated
11:28AM 65.7276 -29.6071 245° Southwest  Level Estimated
11:29AM 65.6783 -29.8592 245° Southwest  Level Estimated
11:30AM 65.6286 -30.1103 244° Southwest  Level Estimated
11:31AM 65.5784 -30.3604 244° Southwest  Level Estimated
11:32AM 65.5279 -30.6096 244° Southwest  Level Estimated
11:33AM 65.4769 -30.8577 244° Southwest  Level Estimated
11:34AM 65.4256 -31.1050 244° Southwest  Level Estimated
11:35AM 65.3738 -31.3512 243° Southwest  Level Estimated
11:36AM 65.3217 -31.5965 243° Southwest  Level Estimated
11:37AM 65.2691 -31.8408 243° Southwest  Level Estimated
11:38AM 65.2162 -32.0841 243° Southwest  Level Estimated
11:39AM 65.1629 -32.3265 242° Southwest  Level Estimated
11:40AM 65.1091 -32.5678 242° Southwest  Level Estimated
11:41AM 65.0550 -32.8082 242° Southwest  Level Estimated
11:42AM 65.0005 -33.0477 242° Southwest  Level Estimated
11:43AM 64.9456 -33.2861 242° Southwest  Level Estimated
11:44AM 64.8904 -33.5236 241° Southwest  Level Estimated
11:45AM 64.8348 -33.7600 241° Southwest  Level Estimated
11:46AM 64.7787 -33.9955 241° Southwest  Level Estimated
11:47AM 64.7224 -34.2301 241° Southwest  Level Estimated
11:48AM 64.6656 -34.4636 240° Southwest  Level Estimated
11:49AM 64.6085 -34.6962 240° Southwest  Level Estimated
11:50AM 64.5510 -34.9278 240° Southwest  Level Estimated
11:51AM 64.4932 -35.1584 240° Southwest  Level Estimated
11:52AM 64.4350 -35.3881 240° Southwest  Level Estimated
11:53AM 64.3764 -35.6167 239° Southwest  Level Estimated
11:54AM 64.3175 -35.8444 239° Southwest  Level Estimated
11:55AM 64.2583 -36.0711 239° Southwest  Level Estimated
11:56AM 64.1986 -36.2968 239° Southwest  Level Estimated
11:57AM 64.1387 -36.5216 239° Southwest  Level Estimated
11:58AM 64.0784 -36.7454 238° Southwest  Level Estimated
11:59AM 64.0177 -36.9683 238° Southwest  Level Estimated
12:00PM 63.9567 -37.1901 238° Southwest  Level Estimated
12:00PM 67.4470 -44.4770 238° Southwest 364 419 36,000  Level FlightAware
12:00PM 67.4010 -44.5960 225° Southwest 364 419 36,000  Level FlightAware
12:01PM 63.8954 -37.4110 238° Southwest  Level Estimated
12:01PM 67.3640 -44.6910 225° Southwest 365 420 36,000  Level FlightAware
12:02PM 67.3200 -44.8050 225° Southwest 367 422 36,000  Level FlightAware
12:02PM 67.2760 -44.9160 224° Southwest 368 423 36,000  Level FlightAware
12:03PM 67.2350 -45.0200 224° Southwest 369 425 36,000  Level FlightAware
12:03PM 67.1950 -45.1200 224° Southwest 369 425 36,000  Level FlightAware
12:04PM 67.1510 -45.2310 224° Southwest 370 426 36,000  Level FlightAware
12:05PM 67.1050 -45.3450 224° Southwest 371 427 36,000  Level FlightAware
12:05PM 67.0630 -45.4520 225° Southwest 372 428 36,000  Level FlightAware
12:06PM 67.0220 -45.5510 223° Southwest 371 427 36,000  Level FlightAware
12:06PM 66.9800 -45.6560 224° Southwest 372 428 36,000  Level FlightAware
12:07PM 66.9420 -45.7470 223° Southwest 373 429 36,000  Level FlightAware
12:07PM 66.8980 -45.8560 224° Southwest 374 430 36,000  Level FlightAware
12:08PM 66.8550 -45.9600 224° Southwest 375 432 36,000  Level FlightAware
12:09PM 66.8100 -46.0680 223° Southwest 377 434 36,000  Level FlightAware
12:09PM 66.7640 -46.1770 223° Southwest 377 434 36,000  Level FlightAware
12:10PM 66.7230 -46.2750 223° Southwest 376 433 36,000  Level FlightAware
12:10PM 66.6770 -46.3830 223° Southwest 375 432 36,000  Level FlightAware
12:11PM 66.6260 -46.5030 223° Southwest 374 430 36,000  Level FlightAware
12:11PM 66.5840 -46.6020 223° Southwest 372 428 36,000  Level FlightAware
12:12PM 66.5340 -46.7190 223° Southwest 371 427 36,000  Level FlightAware
12:13PM 66.4980 -46.8020 223° Southwest 371 427 36,000  Level FlightAware
12:14PM 66.4300 -46.9580 223° Southwest 372 428 36,000  Level FlightAware
12:14PM 66.3890 -47.0490 222° Southwest 372 428 36,000  Level FlightAware
12:15PM 66.3480 -47.1420 222° Southwest 372 428 36,000  Level FlightAware
12:15PM 66.3080 -47.2320 222° Southwest 372 428 36,000  Level FlightAware
12:16PM 66.2680 -47.3220 222° Southwest 372 428 36,000  Level FlightAware
12:17PM 66.2310 -47.4050 222° Southwest 372 428 36,000  Level FlightAware
12:17PM 66.1920 -47.4920 222° Southwest 372 428 36,000  Level FlightAware
12:18PM 66.1510 -47.5820 222° Southwest 372 428 36,000  Level FlightAware
12:18PM 66.1110 -47.6710 222° Southwest 372 428 36,000  Level FlightAware
12:19PM 66.0720 -47.7580 222° Southwest 372 428 36,000  Level FlightAware
12:20PM 66.0340 -47.8420 222° Southwest 372 428 36,000  Level FlightAware
12:20PM 65.9950 -47.9290 222° Southwest 372 428 36,000  Level FlightAware
12:21PM 65.9530 -48.0200 221° Southwest 372 428 36,000  Level FlightAware
12:21PM 65.9140 -48.1070 222° Southwest 372 428 36,000  Level FlightAware
12:22PM 65.8740 -48.1950 222° Southwest 372 428 36,000  Level FlightAware
12:23PM 65.8350 -48.2820 222° Southwest 372 428 36,000  Level FlightAware
12:25PM 65.6901 -48.6207 224° Southwest  Level Estimated
12:26PM 65.6093 -48.8072 224° Southwest  Level Estimated
12:27PM 65.5282 -48.9925 223° Southwest  Level Estimated
12:28PM 65.4470 -49.1767 223° Southwest  Level Estimated
12:29PM 65.3655 -49.3598 223° Southwest  Level Estimated
12:30PM 65.2837 -49.5417 223° Southwest  Level Estimated
12:31PM 65.2018 -49.7225 223° Southwest  Level Estimated
12:32PM 65.1197 -49.9022 223° Southwest  Level Estimated
12:33PM 65.0373 -50.0807 222° Southwest  Level Estimated
12:34PM 64.9547 -50.2582 222° Southwest  Level Estimated
12:35PM 64.8719 -50.4346 222° Southwest  Level Estimated
12:36PM 64.7890 -50.6099 222° Southwest  Level Estimated
12:37PM 64.7058 -50.7841 222° Southwest  Level Estimated
12:37PM 64.7330 -51.0950 222° Southwest 369 425 36,000  Level FlightAware
12:38PM 64.7060 -51.2050 240° Southwest 369 425 36,000  Level FlightAware
12:38PM 64.6730 -51.3340 239° Southwest 369 425 36,000  Level FlightAware
12:39PM 64.6430 -51.4530 240° Southwest 373 429 36,000  Level FlightAware
12:40PM 64.6140 -51.5680 240° Southwest 375 432 36,000  Level FlightAware
12:40PM 64.5820 -51.6930 239° Southwest 378 435 36,000  Level FlightAware
12:41PM 64.5510 -51.8120 239° Southwest 377 434 36,000  Level FlightAware
12:41PM 64.5210 -51.9300 239° Southwest 376 433 36,000  Level FlightAware
12:42PM 64.4880 -52.0540 238° Southwest 376 433 36,000  Level FlightAware
12:42PM 64.4560 -52.1780 239° Southwest 375 432 36,000  Level FlightAware
12:43PM 64.4220 -52.3060 238° Southwest 376 433 36,000  Level FlightAware
12:44PM 64.3930 -52.4160 239° Southwest 376 433 36,000  Level FlightAware
12:44PM 64.3630 -52.5270 238° Southwest 377 434 36,000  Level FlightAware
12:45PM 64.3290 -52.6570 239° Southwest 377 434 36,000  Level FlightAware
12:45PM 64.2960 -52.7800 238° Southwest 378 435 36,000  Level FlightAware
12:46PM 64.2670 -52.8860 238° Southwest 378 435 36,000  Level FlightAware
12:47PM 64.2330 -53.0120 238° Southwest 378 435 36,000  Level FlightAware
12:47PM 64.2060 -53.1060 237° Southwest 378 435 36,000  Level FlightAware
12:48PM 64.1590 -53.2790 238° Southwest 376 433 36,000  Level FlightAware
12:49PM 64.1220 -53.4150 238° Southwest 375 432 36,000  Level FlightAware
12:49PM 64.0870 -53.5380 237° Southwest 375 432 36,000  Level FlightAware
12:50PM 64.0520 -53.6630 237° Southwest 372 428 36,000  Level FlightAware
12:50PM 64.0230 -53.7670 238° Southwest 372 428 36,000  Level FlightAware
12:51PM 63.9940 -53.8670 237° Southwest 372 428 36,000  Level FlightAware
12:52PM 63.9650 -53.9710 238° Southwest 372 428 36,000  Level FlightAware
12:52PM 63.9350 -54.0740 236° Southwest 372 428 36,000  Level FlightAware
12:53PM 63.9060 -54.1770 237° Southwest 372 428 36,000  Level FlightAware
12:53PM 63.8790 -54.2720 237° Southwest 372 428 36,000  Level FlightAware
12:54PM 63.8520 -54.3670 237° Southwest 372 428 36,000  Level FlightAware
12:55PM 63.8210 -54.4730 236° Southwest 372 428 36,000  Level FlightAware
12:55PM 63.7930 -54.5700 237° Southwest 372 428 36,000  Level FlightAware
12:56PM 63.7650 -54.6700 238° Southwest 372 428 36,000  Level FlightAware
12:56PM 63.7350 -54.7720 236° Southwest 372 428 36,000  Level FlightAware
12:57PM 63.7080 -54.8670 237° Southwest 372 428 36,000  Level FlightAware
12:58PM 63.6780 -54.9720 237° Southwest 372 428 36,000  Level FlightAware
12:58PM 63.6490 -55.0710 237° Southwest 372 428 36,000  Level FlightAware
12:59PM 63.6200 -55.1710 237° Southwest 372 428 36,000  Level FlightAware
01:02PM 63.3848 -55.5654 217° Southwest  Level Estimated
01:03PM 63.3265 -55.7923 240° Southwest  Level FlightAware Approximate
01:04PM 63.2679 -56.0183 240° Southwest  Level FlightAware Approximate
01:05PM 63.2089 -56.2435 240° Southwest  Level FlightAware Approximate
01:06PM 63.1496 -56.4677 240° Southwest  Level FlightAware Approximate
01:06PM 63.1833 -56.5833 234° Southwest 380 437 36,000  Level Gander Center
01:07PM 63.0899 -56.6909 240° Southwest  Level FlightAware Approximate
01:07PM 63.1333 -56.7333 234° Southwest 360 414 36,000  Level Gander Center
01:08PM 63.0299 -56.9133 239° Southwest  Level FlightAware Approximate
01:08PM 63.0667 -56.9333 234° Southwest 370 426 36,000  Level Gander Center
01:09PM 62.9695 -57.1347 239° Southwest  Level FlightAware Approximate
01:09PM 63.0167 -57.1167 239° Southwest 360 414 36,000  Level Gander Center
01:10PM 62.9088 -57.3552 239° Southwest  Level FlightAware Approximate
01:10PM 62.9500 -57.3167 234° Southwest 370 426 36,000  Level Gander Center
01:11PM 62.8454 -57.5805 234° Southwest  Level FlightAware Approximate
01:11PM 62.8833 -57.4667 226° Southwest 360 414 36,000  Level Gander Center
01:12PM 62.8500 -57.6167 244° Southwest 340 391 36,000  Level Gander Center
01:14PM 62.7242 -57.9856 233° Southwest  Level FlightAware Approximate
01:21PM 62.2259 -59.3905 233° Southwest  Level FlightAware Approximate
01:21PM 62.2500 -59.2500 224° Southwest 300 345 36,000  Level Montreal Center
01:22PM 62.1536 -59.5873 232° Southwest  Level FlightAware Approximate
01:22PM 62.1833 -59.4333 232° Southwest 370 426 36,000  Level Montreal Center
01:23PM 62.0810 -59.7833 232° Southwest  Level FlightAware Approximate
01:23PM 62.1167 -59.6833 240° Southwest 370 426 36,000  Level Gander Center
01:24PM 61.9817 -59.9150 221° Southwest  Level Estimated
01:24PM 62.0667 -59.7833 223° Southwest 360 414 36,000  Level Montreal Center
01:25PM 61.8973 -60.0869 224° Southwest  Level FlightAware Approximate
01:25PM 62.0000 -59.9667 232° Southwest 360 414 36,000  Level Montreal Center
01:26PM 61.8127 -60.2579 224° Southwest  Level FlightAware Approximate
01:26PM 61.9500 -60.1333 238° Southwest 370 426 36,000  Level Montreal Center
01:27PM 61.8833 -60.3167 232° Southwest 370 426 36,000  Level Montreal Center
01:28PM 61.8333 -60.4833 238° Southwest 370 426 36,000  Level Montreal Center
01:29PM 61.7833 -60.6500 238° Southwest 380 437 36,000  Level Montreal Center
01:30PM 61.7167 -60.8333 233° Southwest 380 437 36,000  Level Montreal Center
01:31PM 61.6500 -61.0500 237° Southwest 390 449 36,000  Level Montreal Center
01:32PM 61.5833 -61.2167 230° Southwest 390 449 36,000  Level Montreal Center
01:33PM 61.5167 -61.4833 242° Southwest 390 449 36,000  Level Gander Center
01:34PM 61.4500 -61.7000 237° Southwest 390 449 36,000  Level Gander Center
01:35PM 61.3833 -61.7667 206° Southwest 390 449 36,000  Level Montreal Center
01:36PM 61.3167 -61.9500 233° Southwest 400 460 36,000  Level Montreal Center
01:37PM 61.2500 -62.1500 235° Southwest 400 460 36,000  Level Montreal Center
01:38PM 61.1833 -62.4167 243° Southwest 410 472 36,000  Level Gander Center
01:39PM 61.1167 -62.5000 211° Southwest 400 460 36,000  Level Montreal Center
01:40PM 61.0500 -62.7000 236° Southwest 400 460 36,000  Level Montreal Center
01:41PM 60.9833 -62.8667 231° Southwest 410 472 36,000  Level Montreal Center
01:42PM 60.8833 -63.2000 238° Southwest 410 472 36,000  Level Gander Center
01:43PM 60.8333 -63.3000 224° Southwest 410 472 36,000  Level Montreal Center
01:44PM 60.7667 -63.4667 231° Southwest 410 472 36,000  Level Montreal Center
01:45PM 60.7000 -63.6667 236° Southwest 410 472 36,000  Level Montreal Center
01:46PM 60.6000 -63.8500 222° Southwest 410 472 36,000  Level Montreal Center
01:47PM 60.5333 -64.0333 234° Southwest 410 472 36,000  Level Montreal Center
01:48PM 60.4667 -64.2000 231° Southwest 410 472 36,000  Level Montreal Center
01:49PM 60.4000 -64.3667 231° Southwest 410 472 36,000  Level Montreal Center
01:50PM 60.3333 -64.5667 236° Southwest 410 472 36,000  Level Montreal Center
01:51PM 60.2667 -64.7167 228° Southwest 410 472 36,000  Level Montreal Center
01:52PM 60.1667 -64.9167 225° Southwest 410 472 36,000  Level Montreal Center
01:53PM 60.1000 -65.1167 236° Southwest 420 483 36,000  Level Montreal Center
01:54PM 60.0167 -65.2500 219° Southwest 410 472 36,000  Level Montreal Center
01:55PM 59.9167 -65.4167 220° Southwest 410 472 36,000  Level Montreal Center
01:56PM 59.8500 -65.5667 229° Southwest 410 472 36,000  Level Montreal Center
01:57PM 59.7667 -65.7000 219° Southwest 420 483 36,000  Level Montreal Center
01:58PM 59.6667 -65.8500 217° Southwest 420 483 36,000  Level Montreal Center
01:59PM 59.5833 -66.0167 225° Southwest 430 495 36,000  Level Montreal Center
02:00PM 59.5000 -66.1833 225° Southwest 430 495 36,000  Level Montreal Center
02:01PM 59.4000 -66.3333 217° Southwest 440 506 36,000  Level Montreal Center
02:02PM 59.2833 -66.5667 226° Southwest 440 506 36,000  Level Gander Center
02:03PM 59.2000 -66.7167 223° Southwest 440 506 36,000  Level Gander Center
02:04PM 59.1000 -66.8667 218° Southwest 440 506 36,000  Level Gander Center
02:05PM 59.0167 -67.0500 229° Southwest 440 506 36,000  Level Gander Center
02:06PM 58.9000 -67.1833 211° Southwest 440 506 36,000  Level Gander Center
02:07PM 58.8167 -67.3333 223° Southwest 440 506 36,000  Level Gander Center
02:08PM 58.7333 -67.4833 223° Southwest 440 506 36,000  Level Gander Center
02:09PM 58.6333 -67.5500 199° South 440 506 36,000  Level Montreal Center
02:10PM 58.5333 -67.7667 229° Southwest 440 506 36,000  Level Gander Center
02:11PM 58.4333 -67.9167 218° Southwest 440 506 36,000  Level Gander Center
02:12PM 58.3500 -68.0500 220° Southwest 440 506 36,000  Level Gander Center
02:13PM 58.2667 -68.1500 212° Southwest 440 506 36,000  Level Montreal Center
02:14PM 58.1833 -68.3000 224° Southwest 440 506 36,000  Level Montreal Center
02:15PM 58.0833 -68.3833 204° Southwest 530 610 36,000  Level Montreal Center
02:16PM 58.0000 -68.5167 220° Southwest 450 518 36,000  Level Montreal Center
02:17PM 57.9000 -68.6667 219° Southwest 440 506 36,000  Level Montreal Center
02:18PM 57.8000 -68.7833 212° Southwest 440 506 36,000  Level Montreal Center
02:19PM 57.7000 -68.9333 219° Southwest 440 506 36,000  Level Montreal Center
02:20PM 57.6000 -69.0833 219° Southwest 440 506 36,000  Level Montreal Center
02:21PM 57.5000 -69.1833 208° Southwest 440 506 36,000  Level Montreal Center
02:22PM 57.4167 -69.3333 224° Southwest 440 506 36,000  Level Montreal Center
02:23PM 57.3000 -69.4833 215° Southwest 440 506 36,000  Level Montreal Center
02:24PM 57.2000 -69.6167 216° Southwest 450 518 36,000  Level Montreal Center
02:25PM 57.1000 -69.7333 212° Southwest 450 518 36,000  Level Montreal Center
02:26PM 57.0000 -69.8667 216° Southwest 450 518 36,000  Level Montreal Center
02:27PM 56.9000 -70.0167 219° Southwest 440 506 36,000  Level Montreal Center
02:28PM 56.8000 -70.1167 209° Southwest 450 518 36,000  Level Montreal Center
02:29PM 56.7000 -70.2500 216° Southwest 450 518 36,000  Level Montreal Center
02:30PM 56.5833 -70.4000 215° Southwest 450 518 36,000  Level Montreal Center
02:31PM 56.4833 -70.5333 216° Southwest 450 518 36,000  Level Montreal Center
02:32PM 56.3667 -70.6333 205° Southwest 450 518 36,000  Level Montreal Center
02:33PM 56.2833 -70.7667 222° Southwest 450 518 36,000  Level Montreal Center
02:34PM 56.1833 -70.9167 220° Southwest 450 518 36,000  Level Montreal Center
02:35PM 56.0667 -71.0167 206° Southwest 450 518 36,000  Level Montreal Center
02:36PM 55.9500 -71.1833 219° Southwest 450 518 36,000  Level Montreal Center
02:37PM 55.8500 -71.2833 209° Southwest 450 518 36,000  Level Montreal Center
02:38PM 55.7500 -71.4167 217° Southwest 450 518 36,000  Level Montreal Center
02:39PM 55.6500 -71.5500 217° Southwest 450 518 36,000  Level Montreal Center
02:40PM 55.5333 -71.6500 206° Southwest 450 518 36,000  Level Montreal Center
02:41PM 55.4333 -71.7833 217° Southwest 450 518 36,000  Level Montreal Center
02:42PM 55.3333 -71.9000 214° Southwest 450 518 36,000  Level Montreal Center
02:43PM 55.2333 -72.0333 217° Southwest 450 518 36,000  Level Montreal Center
02:44PM 55.1167 -72.1333 206° Southwest 450 518 36,000  Level Montreal Center
02:45PM 55.0167 -72.2667 217° Southwest 460 529 36,000  Level Montreal Center
02:46PM 54.9000 -72.3833 210° Southwest 450 518 36,000  Level Montreal Center
02:47PM 54.7833 -72.5167 213° Southwest 460 529 36,000  Level Montreal Center
02:48PM 54.6833 -72.6333 214° Southwest 460 529 36,000  Level Montreal Center
02:49PM 54.5833 -72.7667 218° Southwest 460 529 36,000  Level Montreal Center
02:50PM 54.4667 -72.9000 214° Southwest 460 529 36,000  Level Montreal Center
02:51PM 54.3667 -72.9833 206° Southwest 460 529 36,000  Level Montreal Center
02:52PM 54.2500 -73.1167 214° Southwest 460 529 36,000  Level Montreal Center
02:53PM 54.1333 -73.2333 210° Southwest 460 529 36,000  Level Montreal Center
02:54PM 54.0333 -73.3500 214° Southwest 460 529 36,000  Level Montreal Center
02:55PM 53.9167 -73.4833 214° Southwest 460 529 36,000  Level Montreal Center
02:56PM 53.8167 -73.5667 206° Southwest 460 529 36,000  Level Montreal Center
02:57PM 53.7000 -73.6833 211° Southwest 460 529 36,000  Level Montreal Center
02:58PM 53.5833 -73.7833 207° Southwest 460 529 36,000  Level Montreal Center
02:59PM 53.4667 -73.9000 211° Southwest 470 541 36,000  Level Montreal Center
03:00PM 53.3500 -73.9833 203° Southwest 470 541 36,000  Level Montreal Center
03:01PM 53.2333 -74.1000 211° Southwest 470 541 36,000  Level Montreal Center
03:02PM 53.1167 -74.2000 207° Southwest 460 529 36,000  Level Montreal Center
03:03PM 53.0000 -74.2833 203° Southwest 460 529 36,000  Level Montreal Center
03:04PM 52.8833 -74.3667 203° Southwest 460 529 36,000  Level Montreal Center
03:05PM 52.7667 -74.4667 207° Southwest 470 541 36,000  Level Montreal Center
03:06PM 52.6667 -74.5833 215° Southwest 470 541 36,000  Level Montreal Center
03:07PM 52.5500 -74.6667 203° Southwest 470 541 36,000  Level Montreal Center
03:08PM 52.4167 -74.7500 201° Southwest 460 529 36,000  Level Montreal Center
03:09PM 52.3000 -74.8667 211° Southwest 470 541 36,000  Level Montreal Center
03:10PM 52.1833 -74.9500 204° Southwest 470 541 36,000  Level Montreal Center
03:11PM 52.0667 -75.0333 204° Southwest 460 529 36,000  Level Montreal Center
03:12PM 51.9500 -75.1167 204° Southwest 460 529 36,000  Level Montreal Center
03:13PM 51.8333 -75.2333 212° Southwest 460 529 36,000  Level Montreal Center
03:14PM 51.7167 -75.3167 204° Southwest 460 529 36,000  Level Montreal Center
03:15PM 51.6000 -75.4000 204° Southwest 460 529 36,000  Level Montreal Center
03:16PM 51.4667 -75.4833 201° Southwest 460 529 36,000  Level Montreal Center
03:17PM 51.3667 -75.5833 212° Southwest 470 541 36,000  Level Montreal Center
03:18PM 51.2500 -75.6667 204° Southwest 470 541 36,000  Level Montreal Center
03:19PM 51.1333 -75.7500 204° Southwest 470 541 36,000  Level Montreal Center
03:20PM 51.0167 -75.8333 204° Southwest 470 541 36,000  Level Montreal Center
03:21PM 50.8833 -75.9333 205° Southwest 460 529 36,000  Level Montreal Center
03:22PM 50.7833 -76.0167 208° Southwest 460 529 36,000  Level Montreal Center
03:23PM 50.6500 -76.1000 202° Southwest 460 529 36,000  Level Montreal Center
03:24PM 50.5500 -76.1833 208° Southwest 450 518 36,000  Level Montreal Center
03:25PM 50.4333 -76.2833 209° Southwest 450 518 36,000  Level Montreal Center
03:26PM 50.3167 -76.3667 205° Southwest 450 518 36,000  Level Montreal Center
03:27PM 50.2167 -76.4333 203° Southwest 460 529 36,000  Level Montreal Center
03:28PM 50.0667 -76.5167 200° South 450 518 36,000  Level Montreal Center
03:29PM 49.9667 -76.6000 208° Southwest 460 529 36,000  Level Montreal Center
03:30PM 49.8333 -76.7000 206° Southwest 460 529 36,000  Level Montreal Center
03:31PM 49.7333 -76.7667 203° Southwest 460 529 36,000  Level Montreal Center
03:32PM 49.6000 -76.8500 202° Southwest 460 529 36,000  Level Montreal Center
03:33PM 49.5000 -76.9167 203° Southwest 440 506 36,000  Level Montreal Center
03:34PM 49.3833 -77.0000 205° Southwest 480 552 36,000  Level Montreal Center
03:35PM 49.2667 -77.1000 209° Southwest 450 518 36,000  Level Montreal Center
03:36PM 49.1500 -77.1667 200° South 450 518 36,000  Level Montreal Center
03:37PM 49.0333 -77.2500 205° Southwest 460 529 36,000  Level Montreal Center
03:38PM 48.9167 -77.3167 201° Southwest 450 518 36,000  Level Montreal Center
03:39PM 48.8000 -77.4000 205° Southwest 450 518 36,000  Level Montreal Center
03:40PM 48.6833 -77.4667 201° Southwest 450 518 36,000  Level Montreal Center
03:46PM 48.0570 -77.8910 201° Southwest 453 521 36,000  Level FlightAware
03:46PM 47.9740 -77.9380 201° Southwest 451 519 36,000  Level FlightAware
03:47PM 47.9150 -77.9720 201° Southwest 451 519 36,000  Level FlightAware
03:48PM 47.8550 -78.0070 201° Southwest 451 519 36,000  Level FlightAware
03:48PM 47.7990 -78.0390 201° Southwest 451 519 36,000  Level FlightAware
03:49PM 47.6820 -78.1080 202° Southwest 448 516 36,000  Level FlightAware
03:49PM 47.6130 -78.1480 201° Southwest 449 517 36,000  Level FlightAware
03:50PM 47.5440 -78.1880 201° Southwest 448 516 36,000  Level FlightAware
03:50PM 47.4700 -78.2300 201° Southwest 448 516 36,000  Level FlightAware
03:51PM 47.4080 -78.2660 201° Southwest 448 516 36,000  Level FlightAware
03:52PM 47.3380 -78.3060 201° Southwest 447 514 36,000  Level FlightAware
03:52PM 47.2730 -78.3430 201° Southwest 445 512 36,000  Level FlightAware
03:53PM 47.2210 -78.3730 201° Southwest 444 511 36,000  Level FlightAware
03:53PM 47.1470 -78.4140 201° Southwest 444 511 36,000  Level FlightAware
03:54PM 47.0800 -78.4520 201° Southwest 444 511 36,000  Level FlightAware
03:54PM 47.0130 -78.4900 201° Southwest 444 511 36,000  Level FlightAware
03:55PM 46.9480 -78.5260 201° Southwest 445 512 36,000  Level FlightAware
03:56PM 46.8850 -78.5610 201° Southwest 447 514 36,000  Level FlightAware
03:56PM 46.8200 -78.5970 201° Southwest 447 514 36,000  Level FlightAware
03:57PM 46.7510 -78.6360 201° Southwest 446 513 36,000  Level FlightAware
03:57PM 46.6730 -78.6790 201° Southwest 446 513 36,000  Level FlightAware
03:58PM 46.6120 -78.7130 201° Southwest 446 513 36,000  Level FlightAware
03:59PM 46.5470 -78.7500 201° Southwest 447 514 36,000  Level FlightAware
03:59PM 46.4770 -78.7880 200° South 448 516 36,000  Level FlightAware
04:00PM 46.4040 -78.8280 201° Southwest 448 516 36,000  Level FlightAware
04:00PM 46.3460 -78.8600 201° Southwest 446 513 36,000  Level FlightAware
04:01PM 46.2720 -78.9000 200° South 446 513 36,000  Level FlightAware
04:01PM 46.2110 -78.9330 201° Southwest 446 513 36,000  Level FlightAware
04:02PM 46.1410 -78.9720 201° Southwest 446 513 36,000  Level FlightAware
04:03PM 46.0730 -79.0080 200° South 447 514 36,000  Level FlightAware
04:03PM 46.0020 -79.0470 201° Southwest 447 514 36,000  Level FlightAware
04:04PM 45.9380 -79.0810 200° South 448 516 36,000  Level FlightAware
04:04PM 45.8670 -79.1200 201° Southwest 447 514 36,000  Level FlightAware
04:05PM 45.8010 -79.1550 200° South 446 513 36,000  Level FlightAware
04:06PM 45.7360 -79.1900 201° Southwest 446 513 36,000  Level FlightAware
04:06PM 45.6650 -79.2270 200° South 446 513 36,000  Level FlightAware
04:07PM 45.5950 -79.2650 201° Southwest 446 513 36,000  Level FlightAware
04:07PM 45.5390 -79.2950 201° Southwest 446 513 36,000  Level FlightAware
04:08PM 45.4600 -79.3360 200° South 447 514 36,000  Level FlightAware
04:08PM 45.3950 -79.3710 201° Southwest 447 514 36,000  Level FlightAware
04:09PM 45.3280 -79.4060 200° South 447 514 36,000  Level FlightAware
04:10PM 45.2570 -79.4430 200° South 448 516 36,000  Level FlightAware
04:10PM 45.1930 -79.4770 201° Southwest 448 516 36,000  Level FlightAware
04:11PM 45.1220 -79.5140 200° South 449 517 36,000  Level FlightAware
04:12PM 45.0380 -79.5580 200° South 447 514 36,000  Level FlightAware
04:12PM 44.9570 -79.6000 200° South 446 513 36,000  Level FlightAware
04:13PM 44.8940 -79.6330 200° South 447 514 36,000  Level FlightAware
04:13PM 44.8260 -79.6680 200° South 448 516 36,000  Level FlightAware
04:14PM 44.7560 -79.7040 200° South 449 517 36,000  Level FlightAware
04:14PM 44.7000 -79.7330 200° South 448 516 36,000  Level FlightAware
04:15PM 44.6290 -79.7690 200° South 446 513 36,000  Level FlightAware
04:16PM 44.5700 -79.8060 204° Southwest 441 507 36,000  Level FlightAware
04:16PM 44.5070 -79.8590 211° Southwest 439 505 36,000  Level FlightAware
04:17PM 44.4460 -79.9160 214° Southwest 439 505 36,000  Level FlightAware
04:17PM 44.3900 -79.9670 213° Southwest 439 505 36,000  Level FlightAware
04:18PM 44.3270 -80.0230 212° Southwest 439 505 36,000  Level FlightAware
04:19PM 44.2640 -80.0790 212° Southwest 441 507 36,000  Level FlightAware
04:19PM 44.2140 -80.1240 213° Southwest 442 509 36,000  Level FlightAware
04:20PM 44.1560 -80.1760 213° Southwest 439 505 36,000  Level FlightAware
04:20PM 44.0880 -80.2360 212° Southwest 438 504 36,000  Level FlightAware
04:21PM 44.0330 -80.2850 213° Southwest 438 504 36,000  Level FlightAware
04:21PM 43.9720 -80.3390 213° Southwest 436 502 36,000  Level FlightAware
04:22PM 43.9090 -80.3940 212° Southwest 437 503 36,000  Level FlightAware
04:23PM 43.8470 -80.4490 213° Southwest 439 505 36,000  Level FlightAware
04:23PM 43.7910 -80.4980 212° Southwest 440 506 36,000  Level FlightAware
04:24PM 43.7380 -80.5440 212° Southwest 442 509 36,000  Level FlightAware
04:24PM 43.6700 -80.6040 213° Southwest 441 507 36,000  Level FlightAware
04:25PM 43.6070 -80.6590 212° Southwest 441 507 36,000  Level FlightAware
04:25PM 43.5550 -80.7050 213° Southwest 440 506 36,000  Level FlightAware
04:26PM 43.4880 -80.7620 212° Southwest 440 506 36,000  Level FlightAware
04:27PM 43.4280 -80.8150 213° Southwest 440 506 36,000  Level FlightAware
04:27PM 43.3680 -80.8660 212° Southwest 440 506 36,000  Level FlightAware
04:28PM 43.3110 -80.9150 212° Southwest 439 505 36,000  Level FlightAware
04:28PM 43.2540 -80.9640 212° Southwest 438 504 36,000  Level FlightAware
04:29PM 43.1880 -81.0210 212° Southwest 437 503 36,000  Level FlightAware
04:30PM 43.1330 -81.0680 212° Southwest 437 503 36,000  Level FlightAware
04:30PM 43.0770 -81.1150 212° Southwest 438 504 36,000  Level FlightAware
04:31PM 42.9920 -81.1760 208° Southwest 444 511 36,000  Level FlightAware
04:31PM 42.9280 -81.2160 205° Southwest 444 511 36,000  Level FlightAware
04:32PM 42.8640 -81.2570 205° Southwest 443 510 36,000  Level FlightAware
04:33PM 42.7990 -81.2970 204° Southwest 442 509 36,000  Level FlightAware
04:33PM 42.7360 -81.3360 204° Southwest 442 509 36,000  Level FlightAware
04:34PM 42.6650 -81.3790 204° Southwest 441 507 36,000  Level FlightAware
04:34PM 42.6000 -81.4180 204° Southwest 440 506 36,000  Level FlightAware
04:35PM 42.5420 -81.4540 205° Southwest 442 509 36,000  Level FlightAware
04:36PM 42.4710 -81.4980 205° Southwest 444 511 36,000  Level FlightAware
04:36PM 42.4060 -81.5370 204° Southwest 444 511 36,000  Level FlightAware
04:37PM 42.3450 -81.5740 204° Southwest 444 511 36,000  Level FlightAware
04:37PM 42.2730 -81.6170 204° Southwest 444 511 36,000  Level FlightAware
04:38PM 42.2120 -81.6540 204° Southwest 444 511 36,000  Level FlightAware
04:38PM 42.1460 -81.6940 204° Southwest 445 512 36,000  Level FlightAware
04:39PM 42.0760 -81.7360 204° Southwest 445 512 36,000  Level FlightAware
04:40PM 42.0110 -81.7750 204° Southwest 444 511 36,000  Level FlightAware
04:40PM 41.9500 -81.8120 204° Southwest 444 511 36,000  Level FlightAware
04:41PM 41.8830 -81.8520 204° Southwest 444 511 36,000  Level FlightAware
04:41PM 41.8130 -81.8940 204° Southwest 444 511 36,000  Level FlightAware
04:42PM 41.7500 -81.9310 204° Southwest 444 511 36,000  Level FlightAware
04:42PM 41.6850 -81.9690 204° Southwest 443 510 36,000  Level FlightAware
04:43PM 41.6160 -82.0100 204° Southwest 443 510 36,000  Level FlightAware
04:44PM 41.5530 -82.0470 204° Southwest 444 511 36,000  Level FlightAware
04:44PM 41.4880 -82.0860 204° Southwest 444 511 36,000  Level FlightAware
04:45PM 41.4230 -82.1240 204° Southwest 444 511 36,000  Level FlightAware
04:45PM 41.3570 -82.1600 202° Southwest 444 511 36,000  Level FlightAware
04:46PM 41.2840 -82.1870 196° South 448 516 36,000  Level FlightAware
04:47PM 41.2110 -82.2140 196° South 448 516 36,000  Level FlightAware
04:47PM 41.1430 -82.2390 195° South 449 517 36,000  Level FlightAware
04:48PM 41.0860 -82.2600 196° South 448 516 36,000  Level FlightAware
04:48PM 41.0020 -82.2900 195° South 448 516 36,000  Level FlightAware
04:49PM 40.9350 -82.3130 195° South 448 516 36,000  Level FlightAware
04:50PM 40.8620 -82.3390 195° South 447 514 36,000  Level FlightAware
04:50PM 40.7930 -82.3640 195° South 446 513 36,000  Level FlightAware
04:51PM 40.7350 -82.3840 195° South 446 513 36,000  Level FlightAware
04:51PM 40.6610 -82.4100 195° South 447 514 36,000  Level FlightAware
04:52PM 40.5960 -82.4330 195° South 447 514 36,000  Level FlightAware
04:52PM 40.5240 -82.4580 195° South 447 514 36,000  Level FlightAware
04:53PM 40.4540 -82.4830 195° South 447 514 36,000  Level FlightAware
04:53PM 40.3830 -82.5080 195° South 447 514 36,000  Level FlightAware
04:54PM 40.3150 -82.5310 194° South 448 516 36,000  Level FlightAware
04:55PM 40.2470 -82.5550 195° South 449 517 36,000  Level FlightAware
04:55PM 40.1750 -82.5790 194° South 449 517 36,000  Level FlightAware
04:56PM 40.1050 -82.5900 187° South 451 519 36,000  Level FlightAware
04:56PM 40.0260 -82.5960 183° South 451 519 36,000  Level FlightAware
04:57PM 39.9550 -82.6020 184° South 453 521 36,000  Level FlightAware
04:58PM 39.8860 -82.6060 183° South 454 522 36,000  Level FlightAware
04:58PM 39.8090 -82.6120 183° South 455 524 36,000  Level FlightAware
04:59PM 39.7340 -82.6170 183° South 456 525 36,000  Level FlightAware
04:59PM 39.6590 -82.6220 183° South 455 524 36,000  Level FlightAware
05:00PM 39.5900 -82.6260 183° South 456 525 36,000  Level FlightAware
05:00PM 39.5170 -82.6310 183° South 457 526 36,000  Level FlightAware
05:01PM 39.4450 -82.6360 183° South 457 526 36,000  Level FlightAware
05:02PM 39.3690 -82.6410 183° South 457 526 36,000  Level FlightAware
05:02PM 39.2930 -82.6460 183° South 457 526 36,000  Level FlightAware
05:03PM 39.2210 -82.6510 183° South 458 527 36,000  Level FlightAware
05:03PM 39.1440 -82.6560 183° South 460 529 36,000  Level FlightAware
05:04PM 39.0680 -82.6610 183° South 460 529 36,000  Level FlightAware
05:05PM 38.9950 -82.6660 183° South 460 529 36,000  Level FlightAware
05:05PM 38.9290 -82.6700 183° South 459 528 36,000  Level FlightAware
05:06PM 38.8530 -82.6750 183° South 459 528 36,000  Level FlightAware
05:06PM 38.7760 -82.6800 183° South 460 529 36,000  Level FlightAware
05:07PM 38.7140 -82.6850 184° South 462 532 36,000  Level FlightAware
05:07PM 38.6270 -82.6900 183° South 463 533 36,000  Level FlightAware
05:08PM 38.5520 -82.6950 183° South 464 534 36,000  Level FlightAware
05:09PM 38.4690 -82.7010 183° South 463 533 36,000  Level FlightAware
05:09PM 38.3940 -82.7050 182° South 463 533 36,000  Level FlightAware
05:10PM 38.3240 -82.7100 183° South 463 533 36,000  Level FlightAware
05:10PM 38.2470 -82.7150 183° South 462 532 36,000  Level FlightAware
05:11PM 38.1830 -82.7190 183° South 461 531 36,000  Level FlightAware
05:12PM 38.1010 -82.7240 183° South 462 532 36,000  Level FlightAware
05:12PM 38.0641 -82.7268 183° South 463 533 36,000  Level FlightAware ADS-B
05:13PM 37.9573 -82.7337 183° South 464 534 36,000  Level FlightAware ADS-B
05:13PM 37.8670 -82.7390 183° South 465 535 36,000  Level FlightAware
05:14PM 37.8165 -82.7427 183° South 466 536 36,000  Level FlightAware ADS-B
05:14PM 37.7284 -82.7534 185° South 465 535 36,000  Level FlightAware ADS-B
05:15PM 37.6629 -82.7742 194° South 466 536 36,000  Level FlightAware ADS-B
05:16PM 37.5740 -82.8190 202° Southwest 467 537 36,000  Level FlightAware
05:16PM 37.5459 -82.8380 208° Southwest 467 537 36,000  Level FlightAware ADS-B
05:16PM 37.4880 -82.8766 208° Southwest 468 539 36,000  Level FlightAware ADS-B
05:17PM 37.4238 -82.9188 208° Southwest 468 539 36,000  Level FlightAware ADS-B
05:18PM 37.3533 -82.9651 208° Southwest 468 539 36,000  Level FlightAware ADS-B
05:18PM 37.2957 -83.0029 208° Southwest 468 539 36,000  Level FlightAware ADS-B
05:19PM 37.2379 -83.0407 208° Southwest 468 539 36,000  Level FlightAware ADS-B
05:19PM 37.1757 -83.0814 208° Southwest 468 539 36,000  Level FlightAware ADS-B
05:20PM 37.1167 -83.1198 207° Southwest 469 540 36,000  Level FlightAware ADS-B
05:20PM 37.0497 -83.1634 207° Southwest 470 541 36,000  Level FlightAware ADS-B
05:21PM 36.9907 -83.2016 207° Southwest 471 542 36,000  Level FlightAware ADS-B
05:21PM 36.9322 -83.2396 207° Southwest 471 542 36,000  Level FlightAware ADS-B
05:22PM 36.8717 -83.2788 207° Southwest 470 541 36,000  Level FlightAware ADS-B
05:22PM 36.8087 -83.3195 207° Southwest 470 541 36,000  Level FlightAware ADS-B
05:23PM 36.7491 -83.3579 207° Southwest 470 541 36,000  Level FlightAware ADS-B
05:23PM 36.6797 -83.4025 207° Southwest 468 539 36,000  Level FlightAware ADS-B
05:24PM 36.6214 -83.4399 207° Southwest 467 537 36,000  Level FlightAware ADS-B
05:24PM 36.5629 -83.4775 207° Southwest 467 537 36,000  Level FlightAware ADS-B
05:25PM 36.5034 -83.5155 207° Southwest 468 539 36,000  Level FlightAware ADS-B
05:25PM 36.4454 -83.5525 207° Southwest 468 539 36,000  Level FlightAware ADS-B
05:26PM 36.3862 -83.5903 207° Southwest 469 540 36,000  Level FlightAware ADS-B
05:26PM 36.3277 -83.6276 207° Southwest 470 541 36,000  Level FlightAware ADS-B
05:27PM 36.2694 -83.6646 207° Southwest 471 542 36,000  Level FlightAware ADS-B
05:28PM 36.2085 -83.7032 207° Southwest 473 544 36,000  Level FlightAware ADS-B
05:28PM 36.1474 -83.7419 207° Southwest 474 545 36,000  Level FlightAware ADS-B
05:29PM 36.0846 -83.7816 207° Southwest 473 544 36,000  Level FlightAware ADS-B
05:29PM 36.0255 -83.8189 207° Southwest 473 544 36,000  Level FlightAware ADS-B
05:30PM 35.9677 -83.8552 207° Southwest 473 544 36,000  Level FlightAware ADS-B
05:30PM 35.9117 -83.8828 202° Southwest 474 545 36,000  Level FlightAware ADS-B
05:30PM 35.8542 -83.9037 196° South 475 547 36,000  Level FlightAware ADS-B
05:31PM 35.7894 -83.9204 192° South 476 548 36,000  Level FlightAware ADS-B
05:32PM 35.7032 -83.9431 192° South 475 547 36,000  Level FlightAware ADS-B
05:32PM 35.6378 -83.9596 192° South 475 547 36,000  Level FlightAware ADS-B
05:33PM 35.5723 -83.9756 191° South 476 548 36,000  Level FlightAware ADS-B
05:33PM 35.5051 -83.9919 191° South 476 548 36,000  Level FlightAware ADS-B
05:34PM 35.4365 -84.0085 191° South 476 548 36,000  Level FlightAware ADS-B
05:34PM 35.3717 -84.0241 191° South 474 545 36,000  Level FlightAware ADS-B
05:35PM 35.2871 -84.0444 191° South 475 547 36,000  Level FlightAware ADS-B
05:35PM 35.2144 -84.0619 191° South 475 547 36,000  Level FlightAware ADS-B
05:36PM 35.0896 -84.0918 191° South 475 547 36,000  Level FlightAware ADS-B
05:37PM 35.0248 -84.1073 191° South 475 547 36,000  Level FlightAware ADS-B
05:38PM 34.9260 -84.1310 191° South 475 547 36,000  Level FlightAware
05:38PM 34.8755 -84.1429 191° South 476 548 36,000  Level FlightAware ADS-B
05:39PM 34.8105 -84.1584 191° South 476 548 36,000  Level FlightAware ADS-B
05:39PM 34.7378 -84.1756 191° South 475 547 36,000  Level FlightAware ADS-B
05:40PM 34.6293 -84.2013 191° South 474 545 36,000  Level FlightAware ADS-B
05:40PM 34.5632 -84.2169 191° South 473 544 36,000  Level FlightAware ADS-B
05:41PM 34.4970 -84.2326 191° South 471 542 36,000  Level FlightAware ADS-B
05:41PM 34.4318 -84.2479 191° South 470 541 36,000  Level FlightAware ADS-B
05:42PM 34.3666 -84.2632 191° South 470 541 36,000  Level FlightAware ADS-B
05:43PM 34.2460 -84.2920 191° South 470 541 36,000  Level FlightAware
05:44PM 34.1690 -84.3090 190° South 470 541 36,000  Level FlightAware
05:44PM 34.0930 -84.3270 191° South 470 541 36,000  Level FlightAware
05:44PM 34.0495 -84.3374 191° South 470 541 36,000  Level FlightAware ADS-B
05:45PM 33.9840 -84.3528 191° South 469 540 36,000  Level FlightAware ADS-B
05:45PM 33.9196 -84.3677 191° South 468 539 36,000  Level FlightAware ADS-B
05:46PM 33.8556 -84.3827 191° South 469 540 36,000  Level FlightAware ADS-B
05:47PM 33.7856 -84.3989 191° South 470 541 36,000  Level FlightAware ADS-B
05:47PM 33.7150 -84.4150 191° South 460 529 36,000  Level FlightAware
05:47PM 33.6891 -84.4212 191° South 470 541 36,000  Level FlightAware ADS-B
05:48PM 33.6317 -84.4306 188° South 470 541 36,000  Level FlightAware ADS-B
05:48PM 33.5664 -84.4331 182° South 470 541 36,000  Level FlightAware ADS-B
05:49PM 33.4981 -84.4315 179° South 470 541 36,000  Level FlightAware ADS-B
05:49PM 33.4292 -84.4307 179° South 469 540 36,000  Level FlightAware ADS-B
05:50PM 33.3494 -84.4293 179° South 469 540 36,000  Level FlightAware ADS-B
05:50PM 33.2818 -84.4278 179° South 470 541 36,000  Level FlightAware ADS-B
05:51PM 33.1750 -84.4260 179° South 469 540 36,000  Level FlightAware
05:52PM 33.1050 -84.4240 179° South 469 540 36,000  Level FlightAware
05:52PM 33.0220 -84.4230 179° South 469 540 36,000  Level FlightAware
05:53PM 32.9480 -84.4210 179° South 468 539 36,000  Level FlightAware
05:54PM 32.8710 -84.4200 179° South 468 539 36,000  Level FlightAware
05:54PM 32.7940 -84.4180 179° South 468 539 36,000  Level FlightAware
05:55PM 32.7030 -84.4160 179° South 469 540 36,000  Level FlightAware
05:56PM 32.6260 -84.4150 179° South 469 540 36,000  Level FlightAware
05:56PM 32.6310 -84.4150 360° North 469 540 36,000  Level FlightAware
05:57PM 32.5640 -84.4130 179° South 469 540 36,000  Level FlightAware
05:58PM 32.4980 -84.4120 179° South 469 540 36,000  Level FlightAware
05:58PM 32.4300 -84.4110 179° South 469 540 36,000  Level FlightAware
05:59PM 32.3610 -84.4090 179° South 469 540 36,000  Level FlightAware
05:59PM 32.2950 -84.4080 179° South 469 540 36,000  Level FlightAware
06:00PM 32.2270 -84.4060 179° South 469 540 36,000  Level FlightAware
06:01PM 32.1600 -84.4050 179° South 469 540 36,000  Level FlightAware
06:01PM 32.0940 -84.4040 179° South 469 540 36,000  Level FlightAware
06:02PM 32.0220 -84.4020 179° South 469 540 36,000  Level FlightAware
06:03PM 31.9560 -84.4010 179° South 469 540 36,000  Level FlightAware
06:03PM 31.8890 -84.3990 179° South 469 540 36,000 -780 Level FlightAware
06:04PM 31.5510 -84.3930 179° South 402 463 35,000 -780 Descending FlightAware
06:04PM 31.4630 -84.3910 179° South 456 525 35,000  Level FlightAware
06:05PM 31.3830 -84.3900 179° South 451 519 35,000  Level FlightAware
06:06PM 31.3060 -84.3880 179° South 449 517 35,000  Level FlightAware
06:06PM 31.2390 -84.3870 179° South 447 514 35,000  Level FlightAware
06:07PM 31.1948 -84.3863 179° South 447 514 35,000  Level FlightAware ADS-B (KTLH)
06:07PM 31.1113 -84.3846 179° South 448 516 35,000  Level FlightAware ADS-B (KTLH)
06:08PM 31.0186 -84.3829 179° South 448 516 35,000  Level FlightAware ADS-B (KTLH)
06:09PM 30.9522 -84.3816 179° South 449 517 35,000  Level FlightAware ADS-B (KTLH)
06:09PM 30.8898 -84.3804 179° South 449 517 35,000  Level FlightAware ADS-B (KTLH)
06:10PM 30.8058 -84.3788 179° South 450 518 35,000  Level FlightAware ADS-B (KTLH)
06:10PM 30.7280 -84.3773 179° South 450 518 35,000  Level FlightAware ADS-B (KTLH)
06:11PM 30.6398 -84.3711 177° South 451 519 35,000  Level FlightAware ADS-B (KTLH)
06:12PM 30.5779 -84.3576 169° South 453 521 35,000  Level FlightAware ADS-B (KTLH)
06:12PM 30.5220 -84.3380 163° South 457 526 35,000  Level FlightAware
06:12PM 30.5079 -84.3326 162° South 460 529 35,000  Level FlightAware ADS-B (KTLH)
06:13PM 30.4418 -84.2981 156° South 464 534 35,000  Level FlightAware ADS-B (KTLH)
06:13PM 30.3880 -84.2630 151° Southeast 465 535 35,000  Level FlightAware
06:13PM 30.3637 -84.2471 151° Southeast 466 536 35,000  Level FlightAware ADS-B (KTLH)
06:14PM 30.2892 -84.1987 151° Southeast 465 535 35,000  Level FlightAware ADS-B (KTLH)
06:15PM 30.2328 -84.1620 151° Southeast 465 535 35,000  Level FlightAware ADS-B (KTLH)
06:15PM 30.1799 -84.1275 151° Southeast 466 536 35,000  Level FlightAware ADS-B (KTLH)
06:16PM 30.1200 -84.0890 151° Southeast 465 535 35,000  Level FlightAware
06:16PM 30.1091 -84.0814 149° Southeast 465 535 35,000  Level FlightAware ADS-B (KTLH)
06:16PM 30.0480 -84.0420 151° Southeast 463 533 35,000  Level FlightAware
06:16PM 30.0369 -84.0345 150° Southeast 464 534 35,000  Level FlightAware ADS-B (KTLH)
06:17PM 29.9641 -83.9872 151° Southeast 465 535 35,000  Level FlightAware ADS-B (KTLH)
06:18PM 29.9081 -83.9510 151° Southeast 465 535 35,000  Level FlightAware ADS-B (KTLH)
06:19PM 29.7870 -83.8730 151° Southeast 463 533 35,000  Level FlightAware
06:19PM 29.7260 -83.8330 150° Southeast 464 534 35,000  Level FlightAware
06:20PM 29.6610 -83.7910 151° Southeast 463 533 35,000  Level FlightAware
06:20PM 29.5940 -83.7480 151° Southeast 463 533 35,000  Level FlightAware
06:21PM 29.5280 -83.7060 151° Southeast 461 531 35,000  Level FlightAware
06:21PM 29.4600 -83.6620 151° Southeast 457 526 35,000  Level FlightAware
06:22PM 29.3910 -83.6180 151° Southeast 454 522 35,000  Level FlightAware
06:23PM 29.3320 -83.5800 151° Southeast 454 522 35,000  Level FlightAware
06:23PM 29.2640 -83.5450 156° South 447 514 35,000  Level FlightAware
06:24PM 29.2030 -83.5170 158° South 448 516 35,000  Level FlightAware
06:24PM 29.1280 -83.4830 158° South 447 514 35,000  Level FlightAware
06:25PM 29.0660 -83.4540 158° South 445 512 35,000  Level FlightAware
06:26PM 28.9980 -83.4230 158° South 444 511 35,000  Level FlightAware
06:26PM 28.9290 -83.3910 158° South 443 510 35,000  Level FlightAware
06:27PM 28.8600 -83.3590 158° South 442 509 35,000  Level FlightAware
06:27PM 28.8040 -83.3330 158° South 442 509 35,000  Level FlightAware
06:28PM 28.7320 -83.2990 158° South 443 510 35,000  Level FlightAware
06:28PM 28.6630 -83.2680 158° South 444 511 35,000  Level FlightAware
06:29PM 28.6020 -83.2400 158° South 444 511 35,000  Level FlightAware
06:30PM 28.5300 -83.2070 158° South 445 512 35,000  Level FlightAware
06:30PM 28.4600 -83.1750 158° South 448 516 35,000  Level FlightAware
06:31PM 28.3920 -83.1430 158° South 448 516 35,000  Level FlightAware
06:31PM 28.3290 -83.1150 159° South 448 516 35,000  Level FlightAware
06:32PM 28.2570 -83.0820 158° South 449 517 35,000  Level FlightAware
06:33PM 28.1880 -83.0500 158° South 449 517 35,000  Level FlightAware
06:33PM 28.1250 -83.0220 159° South 451 519 35,000  Level FlightAware
06:34PM 28.0520 -82.9890 158° South 454 522 35,000  Level FlightAware
06:34PM 27.9920 -82.9610 158° South 454 522 35,000  Level FlightAware
06:35PM 27.9190 -82.9280 158° South 452 520 35,000  Level FlightAware
06:35PM 27.8520 -82.8980 158° South 452 520 35,000  Level FlightAware
06:36PM 27.7840 -82.8670 158° South 455 524 35,000  Level FlightAware
06:37PM 27.7110 -82.8340 158° South 458 527 35,000  Level FlightAware
06:37PM 27.6420 -82.8100 163° South 448 516 35,000  Level FlightAware
06:38PM 27.5680 -82.7940 169° South 447 514 35,000  Level FlightAware
06:38PM 27.5040 -82.7810 170° South 447 514 35,000  Level FlightAware
06:39PM 27.4310 -82.7650 169° South 447 514 35,000  Level FlightAware
06:40PM 27.3630 -82.7510 170° South 446 513 35,000  Level FlightAware
06:40PM 27.2910 -82.7360 170° South 446 513 35,000  Level FlightAware
06:41PM 27.2210 -82.7220 170° South 445 512 35,000  Level FlightAware
06:41PM 27.1510 -82.7080 170° South 445 512 35,000  Level FlightAware
06:42PM 27.0720 -82.6930 170° South 439 505 35,000  Level FlightAware
06:43PM 26.9990 -82.6670 162° South 456 525 35,000  Level FlightAware
06:43PM 26.9430 -82.6390 156° South 455 524 35,000  Level FlightAware
06:44PM 26.8770 -82.6060 156° South 455 524 35,000  Level FlightAware
06:44PM 26.8090 -82.5720 156° South 454 522 35,000  Level FlightAware
06:45PM 26.7320 -82.5340 156° South 454 522 35,000  Level FlightAware
06:45PM 26.6780 -82.5070 156° South 456 525 35,000  Level FlightAware
06:46PM 26.5970 -82.4670 156° South 461 531 35,000  Level FlightAware
06:47PM 26.5280 -82.4330 156° South 455 524 35,000  Level FlightAware
06:47PM 26.4710 -82.4050 156° South 456 525 35,000  Level FlightAware
06:50PM 26.2239 -82.2529 151° Southeast  Level FlightAware Approximate
06:51PM 26.1219 -82.1902 151° Southeast  Level FlightAware Approximate
06:52PM 26.0199 -82.1277 151° Southeast  Level FlightAware Approximate
06:53PM 25.9178 -82.0654 151° Southeast  Level FlightAware Approximate
06:54PM 25.8158 -82.0031 151° Southeast  Level FlightAware Approximate
06:55PM 25.7033 -81.9487 159° South  Level FlightAware Approximate
06:56PM 25.5946 -81.9018 159° South  Level FlightAware Approximate
06:57PM 25.4858 -81.8550 159° South  Level FlightAware Approximate
06:58PM 25.3762 -81.8079 159° South  Level FlightAware Approximate
06:59PM 25.2667 -81.7609 159° South  Level FlightAware Approximate
07:00PM 25.1571 -81.7140 159° South  Level FlightAware Approximate
07:01PM 25.0475 -81.6671 159° South  Level FlightAware Approximate
07:02PM 24.9379 -81.6204 159° South  Level FlightAware Approximate
07:03PM 24.8283 -81.5737 159° South  Level FlightAware Approximate
07:04PM 24.7325 -81.5160 93° East  Level FlightAware Approximate
07:05PM 24.7265 -81.3868 93° East  Level FlightAware Approximate
07:06PM 24.7203 -81.2576 93° East  Level FlightAware Approximate
07:07PM 24.7000 -81.1330 90° East  Level FlightAware Approximate
07:08PM 24.6285 -81.0953 189° South  Level FlightAware Approximate
07:09PM 24.5123 -81.1146 189° South  Level FlightAware Approximate
07:10PM 24.3982 -81.1374 200° South  Level FlightAware Approximate
07:11PM 24.2832 -81.1572 187° South  Level FlightAware Approximate
07:12PM 24.1666 -81.1738 187° South  Level FlightAware Approximate
07:13PM 24.0509 -81.1956 193° South  Level FlightAware Approximate
07:14PM 23.9559 -81.2657 225° Southwest  Level FlightAware Approximate
07:15PM 23.8735 -81.3573 225° Southwest  Level FlightAware Approximate
07:16PM 23.7908 -81.4486 225° Southwest  Level FlightAware Approximate
07:17PM 23.7082 -81.5397 225° Southwest  Level FlightAware Approximate
07:18PM 23.6255 -81.6306 225° Southwest  Level FlightAware Approximate
07:19PM 23.5428 -81.7214 225° Southwest  Level FlightAware Approximate
07:20PM 23.4658 -81.8179 231° Southwest  Level FlightAware Approximate
07:21PM 23.3902 -81.9157 228° Southwest  Level FlightAware Approximate
07:22PM 23.3122 -82.0111 228° Southwest  Level FlightAware Approximate
07:23PM 23.2329 -82.1053 226° Southwest  Level FlightAware Approximate
07:24PM 23.1519 -82.1978 226° Southwest  Level FlightAware Approximate
07:25PM 23.0701 -82.2844 231° Southwest  Level FlightAware Approximate
07:26PM 22.9897 -82.3769 223° Southwest  Level FlightAware Approximate
07:27PM 22.9667 -82.4000 223° Southwest  Level FlightAware Approximate
07:28PM 22.9891 -82.4091 223° Southwest  Level Estimated
07:29PM 22.9891 -82.4091 223° Southwest  Level Estimated
07:30PM 22.9891 -82.4091 223° Southwest  Level Estimated
07:31PM 22.9891 -82.4091 223° Southwest  Level Estimated
07:32PM 22.9891 -82.4091 223° Southwest  Level Estimated
07:33PM 22.9891 -82.4091 223° Southwest  Level Estimated
07:34PM 22.9891 -82.4091 223° Southwest  Level Estimated
07:35PM 22.9891 -82.4091 223° Southwest  Level Estimated
07:36PM 22.9891 -82.4091 223° Southwest  Level Estimated
07:37PM 22.9891 -82.4091 223° Southwest  Level Estimated
07:38PM 22.9891 -82.4091 223° Southwest  Level Estimated
07:39PM 22.9891 -82.4091 223° Southwest  Level Estimated